Date String (YYYY-MM-DD hh:mm:ss) UTC,Instrument flags,absolute air pressure of the measurement (hPa),sample flow rate (lpm),inlet stack bypass flow (lpm),air temperature of the measurement (°C),ambient temperature measured by the external sensor (°C),aerosol sample conditioner tube jacket temperature (°C),OPC LED temperature (°C),internal box temperature (°C),relative humidity of the measurement (%),span deviation,mass concentration of particles derived from Lorenz-Mie calculation of OPC scattering (μg/m³),mass concentration of particles derived from Lorenz-Mie calculation of OPC scattering (μg/m³),mass concentration of particles derived from Lorenz-Mie calculation of OPC scattering (μg/m³)
DateTimeUTC,F1_M11,P_M11,Q1_M11,Q2_M11,T1_M11,T2_M11,T3_M11,T4_M11,T5_M11,U1_M11,ZSPAN_M11,X0_M11,X2_M11,X1_M11
2023-08-28 20:00:00,SystemResetWarning,0837.8,5.00,000.00,028.2,026.8,000.0,036.5,029.9,33.8,0000.0,0005.07,0003.53,0003.29
2023-08-28 20:01:00,SystemResetWarning,0837.7,4.99,000.00,028.2,026.1,000.0,036.4,029.7,33.5,0000.0,0005.12,0003.56,0003.31
2023-08-28 20:02:00,SystemResetWarning,0837.8,5.00,000.00,028.1,024.7,000.0,036.3,029.5,34.1,0000.0,0005.16,0003.57,0003.32
2023-08-28 20:03:00,SystemResetWarning,0837.7,5.01,000.00,028.1,024.2,000.0,036.2,029.4,34.1,0000.0,0005.17,0003.58,0003.32
2023-08-28 20:04:00,SystemResetWarning,0837.7,5.00,000.00,028.0,024.4,000.0,036.2,029.2,34.0,0000.0,0005.17,0003.57,0003.33
2023-08-28 20:05:00,SystemResetWarning,0837.6,5.00,000.00,027.9,024.8,000.0,036.3,029.3,34.0,0000.0,0004.99,0003.52,0003.33
2023-08-28 20:06:00,SystemResetWarning,0837.6,5.01,000.00,028.0,025.2,000.0,036.3,029.4,33.8,0000.0,0004.90,0003.50,0003.32
2023-08-28 20:07:00,SystemResetWarning,0837.6,5.00,000.00,028.0,025.6,000.0,036.3,029.5,33.9,0000.0,0004.92,0003.49,0003.30
2023-08-28 20:08:00,SystemResetWarning,0837.6,5.00,000.00,028.0,026.0,000.0,036.4,029.6,33.6,0000.0,0005.11,0003.48,0003.30
2023-08-28 20:09:00,SystemResetWarning,0837.6,5.00,000.00,028.1,026.4,000.0,036.4,029.7,33.2,0000.0,0005.03,0003.48,0003.29
2023-08-28 20:10:00,SystemResetWarning,0837.6,5.00,000.00,028.1,026.4,000.0,036.4,029.8,33.4,0000.0,0005.01,0003.48,0003.28
2023-08-28 20:11:00,SystemResetWarning,0837.5,4.99,000.00,028.1,025.2,000.0,036.3,029.5,33.4,0000.0,0004.93,0003.45,0003.26
2023-08-28 20:12:00,SystemResetWarning,0837.5,5.01,000.00,028.0,024.1,000.0,036.2,029.3,33.6,0000.0,0005.33,0003.43,0003.24
2023-08-28 20:13:00,SystemResetWarning,0837.4,5.01,000.00,027.9,024.0,000.0,036.1,029.2,33.8,0000.0,0005.32,0003.42,0003.22
2023-08-28 20:14:00,SystemResetWarning,0837.2,5.00,000.00,027.8,024.3,000.0,036.2,029.1,34.1,0000.0,0005.28,0003.40,0003.21
2023-08-28 20:15:00,SystemResetWarning,0837.2,4.98,000.00,027.8,024.8,000.0,036.2,029.2,34.9,0000.0,0005.18,0003.38,0003.19
2023-08-28 20:16:00,SystemResetWarning,0837.2,5.02,000.00,027.9,025.2,000.0,036.2,029.4,35.5,0000.0,0005.20,0003.39,0003.19
2023-08-28 20:17:00,SystemResetWarning,0837.2,4.98,000.00,028.1,025.7,000.0,036.3,029.6,34.1,0000.0,0005.15,0003.37,0003.17
2023-08-28 20:18:00,SystemResetWarning,0837.3,5.01,000.00,028.3,026.0,000.0,036.3,029.7,33.6,0000.0,0005.11,0003.36,0003.16
2023-08-28 20:19:00,SystemResetWarning,0837.4,5.00,000.00,028.4,026.4,000.0,036.3,029.8,33.7,0000.0,0005.10,0003.36,0003.15
2023-08-28 20:20:00,SystemResetWarning,0837.4,4.99,000.00,028.5,026.6,000.0,036.4,029.9,34.4,0000.0,0005.02,0003.34,0003.15
2023-08-28 20:21:00,SystemResetWarning,0837.5,5.00,000.00,028.5,026.2,000.0,036.4,029.8,34.1,0000.0,0004.82,0003.30,0003.13
2023-08-28 20:22:00,SystemResetWarning,0837.5,5.00,000.00,028.5,024.8,000.0,036.3,029.5,33.1,0000.0,0004.84,0003.29,0003.13
2023-08-28 20:23:00,SystemResetWarning,0837.5,5.00,000.00,028.4,024.0,000.0,036.2,029.3,33.9,0000.0,0004.35,0003.28,0003.13
2023-08-28 20:24:00,SystemResetWarning,0837.4,5.02,000.00,028.4,024.1,000.0,036.3,029.2,33.8,0000.0,0004.31,0003.28,0003.15
2023-08-28 20:25:00,SystemResetWarning,0837.4,5.00,000.00,028.3,024.5,000.0,036.3,029.2,34.0,0000.0,0004.70,0003.28,0003.16
2023-08-28 20:26:00,SystemResetWarning,0837.4,5.00,000.00,028.3,024.9,000.0,036.4,029.3,33.5,0000.0,0004.73,0003.29,0003.17
2023-08-28 20:27:00,SystemResetWarning,0837.4,5.00,000.00,028.3,025.4,000.0,036.4,029.5,33.4,0000.0,0005.20,0003.30,0003.17
2023-08-28 20:28:00,SystemResetWarning,0837.4,5.00,000.00,028.3,025.8,000.0,036.5,029.6,33.7,0000.0,0005.64,0003.30,0003.16
2023-08-28 20:29:00,SystemResetWarning,0837.4,5.00,000.00,028.3,026.1,000.0,036.5,029.7,33.8,0000.0,0005.60,0003.29,0003.15
2023-08-28 20:30:00,SystemResetWarning,0837.4,4.98,000.00,028.4,026.4,000.0,036.6,029.8,33.5,0000.0,0005.39,0003.26,0003.14
2023-08-28 20:31:00,SystemResetWarning,0837.4,5.00,000.00,028.4,026.6,000.0,036.6,029.8,33.4,0000.0,0005.31,0003.25,0003.13
2023-08-28 20:32:00,SystemResetWarning,0837.4,5.00,000.00,028.4,025.8,000.0,036.5,029.6,34.1,0000.0,0005.44,0003.27,0003.12
2023-08-28 20:33:00,SystemResetWarning,0837.5,5.00,000.00,028.4,024.4,000.0,036.4,029.3,34.2,0000.0,0005.54,0003.29,0003.11
2023-08-28 20:34:00,SystemResetWarning,0837.5,5.01,000.00,028.3,023.9,000.0,036.3,029.2,33.9,0000.0,0005.59,0003.29,0003.11
2023-08-28 20:35:00,SystemResetWarning,0837.5,5.01,000.00,028.2,024.1,000.0,036.4,029.1,34.1,0000.0,0005.59,0003.28,0003.09
2023-08-28 20:36:00,SystemResetWarning,0837.5,5.00,000.00,028.1,024.6,000.0,036.4,029.2,34.8,0000.0,0005.13,0003.27,0003.06
2023-08-28 20:37:00,SystemResetWarning,0837.6,4.99,000.00,028.1,025.0,000.0,036.4,029.3,34.8,0000.0,0005.10,0003.27,0003.04
2023-08-28 20:38:00,SystemResetWarning,0837.6,5.01,000.00,028.2,025.5,000.0,036.5,029.5,35.2,0000.0,0004.83,0003.27,0003.04
2023-08-28 20:39:00,SystemResetWarning,0837.6,4.97,000.00,028.4,025.9,000.0,036.5,029.7,34.8,0000.0,0004.34,0003.28,0003.07
2023-08-28 20:40:00,SystemResetWarning,0837.5,5.04,000.00,028.7,026.2,000.0,036.5,029.8,35.3,0000.0,0004.41,0003.30,0003.10
2023-08-28 20:41:00,SystemResetWarning,0837.6,4.97,000.00,029.0,026.5,000.0,036.6,030.0,35.0,0000.0,0004.52,0003.32,0003.12
2023-08-28 20:42:00,SystemResetWarning,0837.6,5.05,000.00,029.3,026.7,000.0,036.7,030.2,34.7,0000.0,0004.65,0003.34,0003.13
2023-08-28 20:43:00,SystemResetWarning,0837.7,4.95,000.00,029.6,026.1,000.0,036.7,030.1,33.8,0000.0,0004.65,0003.35,0003.14
2023-08-28 20:44:00,SystemResetWarning,0837.6,5.01,000.00,029.7,024.6,000.0,036.6,029.8,33.4,0000.0,0004.55,0003.34,0003.15
2023-08-28 20:45:00,SystemResetWarning,0837.6,5.01,000.00,029.7,023.9,000.0,036.6,029.6,33.4,0000.0,0004.54,0003.34,0003.15
2023-08-28 20:46:00,SystemResetWarning,0837.4,5.01,000.00,029.6,024.1,000.0,036.7,029.5,33.3,0000.0,0004.55,0003.35,0003.15
2023-08-28 20:47:00,SystemResetWarning,0837.4,5.00,000.00,029.6,024.5,000.0,036.9,029.5,33.8,0000.0,0004.66,0003.35,0003.15
2023-08-28 20:48:00,SystemResetWarning,0837.3,5.00,000.00,029.5,025.0,000.0,037.0,029.6,33.9,0000.0,0004.85,0003.35,0003.15
2023-08-28 20:49:00,SystemResetWarning,0837.3,5.00,000.00,029.6,025.4,000.0,037.1,029.7,33.7,0000.0,0004.77,0003.34,0003.15
2023-08-28 20:50:00,SystemResetWarning,0837.3,5.00,000.00,029.6,025.8,000.0,037.2,029.9,34.0,0000.0,0004.66,0003.33,0003.14
2023-08-28 20:51:00,SystemResetWarning,0837.2,4.99,000.00,029.6,026.2,000.0,037.2,029.9,34.6,0000.0,0005.65,0003.34,0003.14
2023-08-28 20:52:00,SystemResetWarning,0837.2,5.00,000.00,029.6,026.5,000.0,037.3,030.0,34.1,0000.0,0006.06,0003.33,0003.12
2023-08-28 20:53:00,SystemResetWarning,0837.2,5.00,000.00,029.7,026.7,000.0,037.4,030.1,35.1,0000.0,0005.94,0003.31,0003.11
2023-08-28 20:54:00,SystemResetWarning,0837.4,5.00,000.00,029.8,026.4,000.0,037.4,030.2,34.2,0000.0,0005.94,0003.30,0003.11
2023-08-28 20:55:00,SystemResetWarning,0837.3,5.00,000.00,029.9,024.8,000.0,037.3,029.9,35.0,0000.0,0006.05,0003.31,0003.11
2023-08-28 20:56:00,SystemResetWarning,0837.4,4.99,000.00,030.0,023.9,000.0,037.2,029.7,34.2,0000.0,0006.15,0003.32,0003.12
2023-08-28 20:57:00,SystemResetWarning,0837.4,5.00,000.00,029.9,024.0,000.0,037.2,029.5,34.3,0000.0,0006.29,0003.32,0003.13
2023-08-28 20:58:00,SystemResetWarning,0837.4,5.01,000.00,029.8,024.3,000.0,037.3,029.5,34.6,0000.0,0006.38,0003.34,0003.14
2023-08-28 20:59:00,SystemResetWarning,0837.4,4.99,000.00,029.8,024.8,000.0,037.4,029.7,35.8,0000.0,0006.18,0003.34,0003.14
